Kenosha, WI

4:28 PM CDT on August 29, 2016 (GMT -0500)
Kenosha Regional

Weather History for KENW - March, 2013

Change the Weather History Date:

Friday, March 8, 2013

  Actual Average Record
Temperature  
Mean Temperature 26 °F -  
Max Temperature 36 °F 40 °F 73 °F (1987)
Min Temperature 15 °F 23 °F 0 °F (1982)
Degree Days  
Heating Degree Days 40    
Moisture  
Dew Point 20 °F    
Average Humidity 80    
Maximum Humidity 100    
Minimum Humidity 67    
Precipitation  
Precipitation 0.00 in - - ()
Sea Level Pressure  
Sea Level Pressure 30.44 in    
Wind  
Wind Speed 3 mph (SE)    
Max Wind Speed 10 mph    
Max Gust Speed -    
Visibility 8 miles    
Events      
Averages and records for this station are not official NWS values.
T = Trace of Precipitation, MM = Missing Value Source: NWS Daily Summary

Daily Weather History Graph

Daily Weather History Graph

Search for Another Location

Airport or City:

Trip Planner

Search our weather history database for the weather conditions in past years. The results will help you decide how hot, cold, wet, or windy it might be!

Date:

Astronomy

Mar. 08, 2013 Rise Set
Actual Time 6:15 AM CST 5:50 PM CST
Civil Twilight 5:47 AM CST 6:18 PM CST
Nautical Twilight 5:14 AM CST 6:51 PM CST
Astronomical Twilight 4:41 AM CST 7:23 PM CST
Moon 4:03 AM CST (3/8) 2:41 PM CST (3/8)
Length of Visible Light 12h 31m
Length of Day
11h 34m
Waning Crescent, 11% of the Moon is Illuminated
Mar 8
Waning Crescent
Mar 11
New
Mar 19
First Quarter
Mar 27
Full
Apr 2
Last Quarter

Hourly Weather History & Observations

Time (CST) Temp. Windchill Dew Point Humidity Pressure Visibility Wind Dir Wind Speed Gust Speed Precip Events Conditions
12:32 AM 17.6 °F 12.3 °F 15.8 °F 93% 30.41 in 4.0 mi NNE 3.5 mph - N/A   Scattered Clouds
12:49 AM 19.4 °F - 15.8 °F 86% 30.43 in 5.0 mi Calm Calm - N/A   Mostly Cloudy
12:53 AM 19.0 °F - 16.0 °F 88% 30.46 in 6.0 mi Calm Calm - N/A   Mostly Cloudy
1:53 AM 21.0 °F - 17.1 °F 85% 30.46 in 5.0 mi Calm Calm - N/A   Scattered Clouds
2:04 AM 19.4 °F - 15.8 °F 86% 30.43 in 6.0 mi Calm Calm - N/A   Mostly Cloudy
2:53 AM 18.0 °F 12.7 °F 15.1 °F 88% 30.48 in 4.0 mi WNW 3.5 mph - N/A   Mostly Cloudy
3:53 AM 19.0 °F - 16.0 °F 88% 30.46 in 4.0 mi Calm Calm - N/A   Mostly Cloudy
4:53 AM 16.0 °F - 12.0 °F 84% 30.48 in 5.0 mi Calm Calm - N/A   Overcast
5:50 AM 17.6 °F - 14.0 °F 86% 30.45 in 5.0 mi Calm Calm - N/A   Scattered Clouds
5:53 AM 17.1 °F - 14.0 °F 88% 30.49 in 5.0 mi Calm Calm - N/A   Scattered Clouds
6:20 AM 15.8 °F - 12.2 °F 86% 30.45 in 2.0 mi Calm Calm - N/A   Clear
6:51 AM 17.6 °F - 14.0 °F 86% 30.46 in 3.0 mi Calm Calm - N/A   Clear
6:53 AM 17.1 °F - 14.0 °F 88% 30.50 in 3.0 mi Calm Calm - N/A   Clear
7:53 AM 19.0 °F - 18.0 °F 96% 30.51 in 10.0 mi Calm Calm - N/A   Partly Cloudy
8:00 AM 19.4 °F - 17.6 °F 93% 30.46 in 3.0 mi Calm Calm - N/A   Overcast
8:09 AM 19.4 °F - 19.4 °F 100% 30.47 in 10.0 mi Calm Calm - N/A   Partly Cloudy
9:53 AM 33.1 °F 26.1 °F 26.1 °F 75% 30.50 in 10.0 mi South 8.1 mph - N/A   Partly Cloudy
10:00 AM 33.8 °F 27.0 °F 26.6 °F 75% 30.47 in 10.0 mi South 8.1 mph - N/A   Mostly Cloudy
10:53 AM 34.0 °F 26.6 °F 26.1 °F 73% 30.48 in 10.0 mi SSE 9.2 mph - N/A   Mostly Cloudy
11:25 AM 35.6 °F 29.2 °F 26.6 °F 70% 30.45 in 10.0 mi SSE 8.1 mph - N/A   Scattered Clouds
11:53 AM 35.1 °F 27.4 °F 25.0 °F 67% 30.48 in 10.0 mi SE 10.4 mph - N/A   Clear
12:53 PM 36.0 °F 28.5 °F 27.0 °F 70% 30.46 in 10.0 mi SE 10.4 mph - N/A   Clear
1:53 PM 36.0 °F 29.6 °F 27.0 °F 70% 30.44 in 10.0 mi SSE 8.1 mph - N/A   Clear
2:53 PM 35.1 °F 27.9 °F 26.1 °F 70% 30.42 in 10.0 mi ESE 9.2 mph - N/A   Clear
3:53 PM 35.1 °F 28.6 °F 25.0 °F 67% 30.42 in 10.0 mi SE 8.1 mph - N/A   Clear
4:53 PM 35.1 °F 27.9 °F 25.0 °F 67% 30.40 in 10.0 mi ESE 9.2 mph - N/A   Clear
5:53 PM 33.1 °F 27.7 °F 25.0 °F 72% 30.42 in 10.0 mi SE 5.8 mph - N/A   Clear
6:53 PM 33.1 °F 26.9 °F 25.0 °F 72% 30.41 in 10.0 mi SE 6.9 mph - N/A   Clear
7:53 PM 32.0 °F 24.2 °F 24.1 °F 73% 30.41 in 10.0 mi SSE 9.2 mph - N/A   Clear
8:53 PM 32.0 °F 24.8 °F 24.1 °F 73% 30.39 in 10.0 mi SE 8.1 mph - N/A   Clear
9:53 PM 30.9 °F 24.3 °F 23.0 °F 72% 30.38 in 10.0 mi South 6.9 mph - N/A   Clear
10:53 PM 30.0 °F 24.1 °F 23.0 °F 75% 30.36 in 10.0 mi SSE 5.8 mph - N/A   Clear
11:53 PM 30.9 °F 25.2 °F 24.1 °F 76% 30.32 in 10.0 mi SE 5.8 mph - N/A   Clear